Location: Allentsteig
(48.6833°N, 15.3167°E)
Time: 21:59:24
(UTC+00:00)

USA 238 DEB - Pass Details

Date: 21 January 2021
Orbit: 995 x 1217 km, 63.4° (Epoch: 07 March)

Event Time Altitude Azimuth Distance (km) Brightness Sun altitude
Rises 16:01:04 0° 306° (NW) 4,002 7.1 -4.0°
Reaches altitude 10° 16:05:26 10° 282° (WNW) 3,082 7.0 -4.6°
Maximum altitude 16:08:39 13° 256° (WSW) 2,854 7.5 -5.1°
Drops below altitude 10° 16:11:54 10° 230° (SW) 3,127 7.7 -5.6°
Sets 16:16:26 0° 206° (SSW) 4,110 7.6 -6.3°
